Location: Barcelona
(41.3830°N, 2.1830°E)
Time: 00:34:01
(UTC+02:00)

ISS - Pass Details

Date: 16 July 2019
Orbit: 409 x 418 km, 51.6° (Epoch: 22 July)

Event Time Altitude Azimuth Distance (km) Brightness Sun altitude
Rises 23:01:21 0° 225° (SW) 2,342 0.0 -15.2°
Reaches altitude 10° 23:03:27 10° 221° (SW) 1,482 -1.1 -15.5°
Maximum altitude 23:06:43 60° 141° (SE) 478 -3.9 -15.9°
Drops below altitude 10° 23:10:01 10° 61° (ENE) 1,485 -1.1 -16.3°
Sets 23:12:07 0° 57° (ENE) 2,349 0.0 -16.6°
